Weather History for KL35 - June, 2013

Change the Weather History Date:

Tuesday, June 18, 2013

  Actual Average (KBUO) Record (KBUO)
Temperature  
Mean Temperature 58 °F -  
Max Temperature 75 °F 83 °F 96 °F (1997)
Min Temperature 41 °F 54 °F 32 °F (2001)
Degree Days  
Heating Degree Days 7    
Growing Degree Days 8 (Base 50)    
Moisture  
Dew Point 21 °F    
Average Humidity 29    
Maximum Humidity 61    
Minimum Humidity 7    
Precipitation  
Precipitation 0.00 in - - ()
Sea Level Pressure  
Sea Level Pressure 30.14 in    
Wind  
Wind Speed 5 mph (WSW)    
Max Wind Speed 14 mph    
Max Gust Speed 21 mph    
Visibility 10 miles    
Events      
Averages and records for this station are not official NWS values.
T = Trace of Precipitation, MM = Missing Value Source: NWS Daily Summary

Daily Weather History Graph

Daily Weather History Graph

Search for Another Location

Airport or City:

Trip Planner

Search our weather history database for the weather conditions in past years. The results will help you decide how hot, cold, wet, or windy it might be!

Date:

Astronomy

Jun. 18, 2013 Rise Set
Actual Time 5:35 AM PDT 8:01 PM PDT
Civil Twilight 5:06 AM PDT 8:31 PM PDT
Nautical Twilight 4:29 AM PDT 9:07 PM PDT
Astronomical Twilight 3:50 AM PDT 9:47 PM PDT
Moon 3:01 PM PDT (6/18) 1:35 AM PDT (6/18)
Length of Visible Light 15h 25m
Length of Day
14h 26m
Waxing Gibbous, 72% of the Moon is Illuminated
Jun 18
Waxing Gibbous
Jun 23
Full
Jun 29
Last Quarter
Jul 8
New
Jul 15
First Quarter

Hourly Weather History & Observations

Time (PDT) Temp. Windchill Dew Point Humidity Pressure Visibility Wind Dir Wind Speed Gust Speed Precip Events Conditions
12:15 AM 46.4 °F - 28.4 °F 50% 30.19 in 10.0 mi Calm Calm - N/A   Clear
12:35 AM 44.6 °F - 28.4 °F 53% 30.19 in 10.0 mi Calm Calm - N/A   Clear
12:55 AM 44.6 °F - 28.4 °F 53% 30.19 in 10.0 mi Calm Calm - N/A   Clear
1:15 AM 42.8 °F - 26.6 °F 53% 30.18 in 10.0 mi Calm Calm - N/A   Clear
1:35 AM 42.8 °F 40.1 °F 26.6 °F 53% 30.18 in 10.0 mi SW 4.6 mph - N/A   Clear
1:55 AM 44.6 °F 43.1 °F 26.6 °F 49% 30.17 in 10.0 mi WSW 3.5 mph - N/A   Clear
2:15 AM 44.6 °F 42.2 °F 26.6 °F 49% 30.17 in 10.0 mi WSW 4.6 mph - N/A   Clear
2:35 AM 44.6 °F 43.1 °F 28.4 °F 53% 30.16 in 10.0 mi WSW 3.5 mph - N/A   Clear
2:55 AM 42.8 °F 41.1 °F 26.6 °F 53% 30.16 in 10.0 mi SW 3.5 mph - N/A   Clear
3:15 AM 42.8 °F - 26.6 °F 53% 30.16 in 10.0 mi Calm Calm - N/A   Clear
3:35 AM 42.8 °F - 28.4 °F 57% 30.16 in 10.0 mi Calm Calm - N/A   Clear
3:55 AM 42.8 °F 41.1 °F 28.4 °F 57% 30.15 in 10.0 mi WSW 3.5 mph - N/A   Clear
4:15 AM 41.0 °F - 28.4 °F 61% 30.15 in 10.0 mi Calm Calm - N/A   Clear
4:35 AM 41.0 °F - 28.4 °F 61% 30.15 in 10.0 mi Calm Calm - N/A   Clear
4:55 AM 41.0 °F 38.0 °F 28.4 °F 61% 30.15 in 10.0 mi West 4.6 mph - N/A   Clear
5:15 AM 41.0 °F - 26.6 °F 57% 30.15 in 10.0 mi Calm Calm - N/A   Clear
5:35 AM 41.0 °F 39.0 °F 28.4 °F 61% 30.16 in 10.0 mi West 3.5 mph - N/A   Clear
5:55 AM 41.0 °F - 24.8 °F 53% 30.16 in 10.0 mi Calm Calm - N/A   Clear
6:15 AM 41.0 °F - 26.6 °F 57% 30.16 in 10.0 mi Calm Calm - N/A   Clear
6:35 AM 42.8 °F 41.1 °F 23.0 °F 46% 30.16 in 10.0 mi West 3.5 mph - N/A   Clear
6:55 AM 46.4 °F 43.5 °F 32.0 °F 57% 30.16 in 10.0 mi West 5.8 mph - N/A   Clear
7:15 AM 51.8 °F - 35.6 °F 54% 30.16 in 10.0 mi West 4.6 mph - N/A   Clear
7:35 AM 53.6 °F - 33.8 °F 47% 30.16 in 10.0 mi West 5.8 mph - N/A   Clear
7:55 AM 59.0 °F - 32.0 °F 36% 30.16 in 10.0 mi West 4.6 mph - N/A   Clear
8:15 AM 64.4 °F - 21.2 °F 19% 30.16 in 10.0 mi West 4.6 mph - N/A   Clear
8:35 AM 64.4 °F - 26.6 °F 24% 30.16 in 10.0 mi West 4.6 mph - N/A   Clear
8:55 AM 68.0 °F - 14.0 °F 12% 30.16 in 10.0 mi West 5.8 mph - N/A   Clear
9:15 AM 69.8 °F - 14.0 °F 12% 30.16 in 10.0 mi West 5.8 mph - N/A   Clear
9:35 AM 71.6 °F - 14.0 °F 11% 30.16 in 10.0 mi West 6.9 mph - N/A   Clear
9:55 AM 71.6 °F - 15.8 °F 12% 30.16 in 10.0 mi West 8.1 mph - N/A   Clear
10:15 AM 71.6 °F - 14.0 °F 11% 30.16 in 10.0 mi West 10.4 mph - N/A   Clear
10:35 AM 73.4 °F - 10.4 °F 9% 30.16 in 10.0 mi West 11.5 mph - N/A   Clear
10:55 AM 73.4 °F - 17.6 °F 12% 30.17 in 10.0 mi West 10.4 mph - N/A   Clear
11:15 AM 73.4 °F - 23.0 °F 15% 30.17 in 10.0 mi WSW 9.2 mph - N/A   Clear
11:35 AM 71.6 °F - 23.0 °F 16% 30.17 in 10.0 mi West 11.5 mph - N/A   Clear
11:55 AM 73.4 °F - 21.2 °F 14% 30.17 in 10.0 mi West 11.5 mph - N/A   Clear
12:15 PM 73.4 °F - 23.0 °F 15% 30.17 in 10.0 mi West 13.8 mph 17.3 mph N/A   Clear
12:35 PM 73.4 °F - 21.2 °F 14% 30.17 in 10.0 mi West 11.5 mph 19.6 mph N/A   Clear
12:55 PM 73.4 °F - 19.4 °F 13% 30.17 in 10.0 mi West 11.5 mph 20.7 mph N/A   Clear
1:15 PM 75.2 °F - 17.6 °F 11% 30.17 in 10.0 mi West 12.7 mph - N/A   Clear
1:35 PM 75.2 °F - 17.6 °F 11% 30.17 in 10.0 mi WSW 10.4 mph 17.3 mph N/A   Clear
1:55 PM 73.4 °F - 15.8 °F 11% 30.16 in 10.0 mi West 11.5 mph 17.3 mph N/A   Clear
2:15 PM 75.2 °F - 8.6 °F 8% 30.16 in 10.0 mi WSW 9.2 mph - N/A   Clear
2:35 PM 73.4 °F - 14.0 °F 10% 30.16 in 10.0 mi West 12.7 mph 18.4 mph N/A   Clear
2:55 PM 75.2 °F - 5.0 °F 7% 30.15 in 10.0 mi SW 8.1 mph - N/A   Clear
3:15 PM 73.4 °F - 8.6 °F 8% 30.15 in 10.0 mi SW 9.2 mph 17.3 mph N/A   Clear
3:35 PM 73.4 °F - 8.6 °F 8% 30.15 in 10.0 mi SW 12.7 mph 18.4 mph N/A   Clear
3:55 PM 73.4 °F - 10.4 °F 9% 30.14 in 10.0 mi WSW 9.2 mph - N/A   Clear
4:15 PM 71.6 °F - 8.6 °F 9% 30.14 in 10.0 mi SW 10.4 mph 17.3 mph N/A   Clear
4:35 PM 71.6 °F - 8.6 °F 9% 30.13 in 10.0 mi SW 10.4 mph 18.4 mph N/A   Clear
4:55 PM 69.8 °F - 10.4 °F 10% 30.13 in 10.0 mi SW 11.5 mph 16.1 mph N/A   Clear
5:15 PM 69.8 °F - 10.4 °F 10% 30.12 in 10.0 mi SW 11.5 mph 16.1 mph N/A   Clear
5:35 PM 68.0 °F - 10.4 °F 11% 30.12 in 10.0 mi SW 9.2 mph 19.6 mph N/A   Clear
5:55 PM 68.0 °F - 10.4 °F 11% 30.12 in 10.0 mi SW 9.2 mph - N/A   Clear
6:15 PM 68.0 °F - 8.6 °F 10% 30.11 in 10.0 mi WSW 10.4 mph - N/A   Clear
6:35 PM 66.2 °F - 6.8 °F 10% 30.11 in 10.0 mi SW 6.9 mph 19.6 mph N/A   Clear
6:55 PM 64.4 °F - 10.4 °F 12% 30.11 in 10.0 mi SW 9.2 mph - N/A   Clear
7:15 PM 62.6 °F - 23.0 °F 22% 30.11 in 10.0 mi West 9.2 mph 20.7 mph N/A   Clear
7:35 PM 60.8 °F - 26.6 °F 27% 30.11 in 10.0 mi WSW 6.9 mph - N/A   Clear
7:55 PM 59.0 °F - 28.4 °F 31% 30.11 in 10.0 mi SW 6.9 mph - N/A   Clear
8:15 PM 57.2 °F - 32.0 °F 38% 30.10 in 10.0 mi WSW 5.8 mph - N/A   Clear
8:35 PM 55.4 °F - 30.2 °F 38% 30.10 in 10.0 mi WSW 8.1 mph - N/A   Clear
8:55 PM 55.4 °F - 26.6 °F 33% 30.10 in 10.0 mi WSW 5.8 mph - N/A   Clear
9:15 PM 55.4 °F - 19.4 °F 25% 30.10 in 10.0 mi WSW 4.6 mph - N/A   Clear
9:35 PM 55.4 °F - 19.4 °F 25% 30.11 in 10.0 mi West 6.9 mph - N/A   Clear
9:55 PM 55.4 °F - 15.8 °F 21% 30.11 in 10.0 mi WSW 8.1 mph - N/A   Clear
10:15 PM 53.6 °F - 17.6 °F 24% 30.11 in 10.0 mi West 9.2 mph - N/A   Clear
10:35 PM 53.6 °F - 17.6 °F 24% 30.11 in 10.0 mi West 4.6 mph - N/A   Clear
10:55 PM 53.6 °F - 21.2 °F 28% 30.10 in 10.0 mi West 5.8 mph - N/A   Clear
11:15 PM 51.8 °F - 19.4 °F 28% 30.09 in 10.0 mi West 6.9 mph - N/A   Clear
11:35 PM 51.8 °F - 19.4 °F 28% 30.09 in 10.0 mi West 4.6 mph - N/A   Clear
11:55 PM 51.8 °F - 19.4 °F 28% 30.08 in 10.0 mi West 6.9 mph - N/A   Clear